DAL8635 KMCI-KMKE

Flight info

Callsign DAL8635
Flight time 1h 13m
Altitude 35000
Route ROYAL2 BODYN JOT LEEDN GOPAC3
Aircraft A321/M-SDE3FGHIRWY/LB1

Departure

Time 2026-04-23 21:50
Airport Kansas City International Airport (KMCI)

Arrival

Time 2026-04-23 23:04
Airport General Mitchell International Airport (KMKE)
Time Latitude Longitude Altitude Speed Heading
2026-04-23 21:14 39.29822 -94.72348 1015 ft 0 kts 103°
2026-04-23 21:39 39.29826 -94.72367 1015 ft 3 kts 103°
2026-04-23 21:39 39.29830 -94.72391 1015 ft 3 kts 103°
2026-04-23 21:39 39.29840 -94.72411 1015 ft 3 kts 163°
2026-04-23 21:39 39.29858 -94.72412 1015 ft 2 kts 188°
2026-04-23 21:40 39.29859 -94.72412 1015 ft 0 kts 188°
2026-04-23 21:41 39.29815 -94.72421 1014 ft 12 kts 192°
2026-04-23 21:41 39.29739 -94.72446 1014 ft 11 kts 195°
2026-04-23 21:42 39.29668 -94.72465 1014 ft 10 kts 191°
2026-04-23 21:42 39.29602 -94.72489 1014 ft 10 kts 207°
2026-04-23 21:42 39.29544 -94.72590 1014 ft 16 kts 217°
2026-04-23 21:42 39.29437 -94.72628 1014 ft 16 kts 192°
2026-04-23 21:43 39.29332 -94.72654 1014 ft 15 kts 179°
2026-04-23 21:43 39.29286 -94.72545 1014 ft 23 kts 95°
2026-04-23 21:43 39.29267 -94.72281 1014 ft 31 kts 98°
2026-04-23 21:43 39.29241 -94.72006 1015 ft 30 kts 96°
2026-04-23 21:44 39.29221 -94.71738 1015 ft 30 kts 96°
2026-04-23 21:44 39.29199 -94.71477 1015 ft 29 kts 97°
2026-04-23 21:44 39.29178 -94.71222 1014 ft 28 kts 96°
2026-04-23 21:44 39.29158 -94.70973 1014 ft 28 kts 96°
2026-04-23 21:45 39.29168 -94.70791 1014 ft 16 kts 65°
2026-04-23 21:45 39.29259 -94.70731 1014 ft 15 kts 15°
2026-04-23 21:45 39.29357 -94.70704 1014 ft 14 kts
2026-04-23 21:45 39.29471 -94.70674 1014 ft 22 kts 14°
2026-04-23 21:46 39.29637 -94.70622 1014 ft 25 kts 12°
2026-04-23 21:46 39.29801 -94.70574 1015 ft 24 kts 14°
2026-04-23 21:46 39.29960 -94.70527 1015 ft 23 kts 12°
2026-04-23 21:46 39.30115 -94.70480 1015 ft 23 kts 12°
2026-04-23 21:47 39.30267 -94.70435 1014 ft 22 kts 13°
2026-04-23 21:47 39.30413 -94.70392 1015 ft 21 kts 13°
2026-04-23 21:47 39.30555 -94.70349 1014 ft 21 kts 13°
2026-04-23 21:47 39.30666 -94.70314 1015 ft 10 kts 20°
2026-04-23 21:48 39.30694 -94.70248 1016 ft 8 kts 90°
2026-04-23 21:48 39.30682 -94.70187 1016 ft 6 kts 108°
2026-04-23 21:48 39.30656 -94.70162 1016 ft 4 kts 167°
2026-04-23 21:48 39.30637 -94.70163 1017 ft 2 kts 189°
2026-04-23 21:49 39.30634 -94.70164 1017 ft 0 kts 191°
2026-04-23 21:49 39.30607 -94.70171 1017 ft 25 kts 193°
2026-04-23 21:49 39.30183 -94.70298 1013 ft 97 kts 193°
2026-04-23 21:49 39.29344 -94.70550 1015 ft 148 kts 193°
2026-04-23 21:50 39.28237 -94.70887 1269 ft 167 kts 194°
2026-04-23 21:50 39.27123 -94.71260 1898 ft 165 kts 194°
2026-04-23 21:50 39.26013 -94.71591 2516 ft 164 kts 193°
2026-04-23 21:50 39.24933 -94.72048 3004 ft 168 kts 216°
2026-04-23 21:51 39.24345 -94.73371 3188 ft 188 kts 266°
2026-04-23 21:51 39.24796 -94.75023 3343 ft 208 kts 312°
2026-04-23 21:51 39.26106 -94.75839 3498 ft 224 kts 355°
2026-04-23 21:51 39.27644 -94.75292 3641 ft 246 kts 35°
2026-04-23 21:52 39.28777 -94.73520 4054 ft 265 kts 58°
2026-04-23 21:52 39.29900 -94.71606 4891 ft 270 kts 47°
2026-04-23 21:52 39.31232 -94.69881 5757 ft 273 kts 43°
2026-04-23 21:52 39.32647 -94.68223 6621 ft 276 kts 41°
2026-04-23 21:53 39.34090 -94.66559 7464 ft 280 kts 41°
2026-04-23 21:53 39.35538 -94.64863 8283 ft 283 kts 42°
2026-04-23 21:53 39.36994 -94.63124 9077 ft 287 kts 43°
2026-04-23 21:53 39.38455 -94.61347 9860 ft 290 kts 43°
2026-04-23 21:54 39.39924 -94.59533 10588 ft 296 kts 43°
2026-04-23 21:54 39.41466 -94.57616 10832 ft 319 kts 44°
2026-04-23 21:54 39.43121 -94.55548 11041 ft 341 kts 44°
2026-04-23 21:54 39.44853 -94.53377 11576 ft 350 kts 44°
2026-04-23 21:55 39.46615 -94.51166 12265 ft 355 kts 44°
2026-04-23 21:55 39.48394 -94.48934 12960 ft 359 kts 44°
2026-04-23 21:55 39.50194 -94.46672 13640 ft 363 kts 44°
2026-04-23 21:55 39.52013 -94.44386 14319 ft 366 kts 44°
2026-04-23 21:56 39.53852 -94.42078 14989 ft 370 kts 44°
2026-04-23 21:56 39.55707 -94.39747 15639 ft 373 kts 44°
2026-04-23 21:56 39.57579 -94.37394 16268 ft 377 kts 44°
2026-04-23 21:56 39.59469 -94.35017 16883 ft 380 kts 44°
2026-04-23 21:57 39.61376 -94.32616 17468 ft 384 kts 44°
2026-04-23 21:57 39.63274 -94.30226 18040 ft 387 kts 44°
2026-04-23 21:57 39.65212 -94.27780 18604 ft 390 kts 44°
2026-04-23 21:57 39.67165 -94.25312 19154 ft 393 kts 44°
2026-04-23 21:58 39.69134 -94.22826 19684 ft 396 kts 44°
2026-04-23 21:58 39.71115 -94.20325 20196 ft 400 kts 44°
2026-04-23 21:58 39.73114 -94.17796 20698 ft 403 kts 44°
2026-04-23 21:58 39.75126 -94.15245 21199 ft 406 kts 44°
2026-04-23 21:59 39.77153 -94.12670 21681 ft 409 kts 44°
2026-04-23 21:59 39.79195 -94.10077 22160 ft 412 kts 44°
2026-04-23 21:59 39.81250 -94.07464 22628 ft 415 kts 44°
2026-04-23 22:00 39.85404 -94.02183 23508 ft 420 kts 44°
2026-04-23 22:00 39.87502 -93.99514 23935 ft 423 kts 44°
2026-04-23 22:00 39.89611 -93.96825 24373 ft 426 kts 44°
2026-04-23 22:00 39.91726 -93.94120 24787 ft 428 kts 44°
2026-04-23 22:01 39.93860 -93.91392 25189 ft 431 kts 44°
2026-04-23 22:01 39.96008 -93.88647 25581 ft 433 kts 44°
2026-04-23 22:01 39.98167 -93.85886 25955 ft 436 kts 44°
2026-04-23 22:01 40.00339 -93.83106 26331 ft 439 kts 44°
2026-04-23 22:02 40.02523 -93.80309 26683 ft 441 kts 44°
2026-04-23 22:02 40.04720 -93.77495 27045 ft 444 kts 44°
2026-04-23 22:02 40.06922 -93.74668 27398 ft 446 kts 44°
2026-04-23 22:02 40.09139 -93.71818 27727 ft 448 kts 44°
2026-04-23 22:03 40.11294 -93.68858 28057 ft 451 kts 51°
2026-04-23 22:03 40.13085 -93.65489 28376 ft 453 kts 60°
2026-04-23 22:03 40.14449 -93.61771 28679 ft 455 kts 69°
2026-04-23 22:03 40.15355 -93.57800 28983 ft 457 kts 78°
2026-04-23 22:04 40.15933 -93.53708 29266 ft 459 kts 80°
2026-04-23 22:04 40.16491 -93.49644 29549 ft 461 kts 80°
2026-04-23 22:04 40.17058 -93.45505 29847 ft 463 kts 80°
2026-04-23 22:04 40.17624 -93.41346 30136 ft 465 kts 80°
2026-04-23 22:05 40.18185 -93.37188 30515 ft 464 kts 80°
2026-04-23 22:05 40.18744 -93.33034 30921 ft 463 kts 80°
2026-04-23 22:05 40.19300 -93.28887 31304 ft 463 kts 80°
2026-04-23 22:05 40.19858 -93.24745 31696 ft 462 kts 80°
2026-04-23 22:06 40.20414 -93.20612 32087 ft 461 kts 80°
2026-04-23 22:06 40.20965 -93.16486 32465 ft 460 kts 80°
2026-04-23 22:06 40.21516 -93.12365 32842 ft 459 kts 80°
2026-04-23 22:06 40.22062 -93.08256 33207 ft 459 kts 80°
2026-04-23 22:07 40.22604 -93.04142 33570 ft 458 kts 80°
2026-04-23 22:07 40.23140 -93.00041 33919 ft 457 kts 80°
2026-04-23 22:07 40.23672 -92.95943 34262 ft 457 kts 80°
2026-04-23 22:07 40.24206 -92.91848 34600 ft 456 kts 80°
2026-04-23 22:08 40.24743 -92.87758 34930 ft 455 kts 80°
2026-04-23 22:08 40.25282 -92.83676 35258 ft 455 kts 80°
2026-04-23 22:08 40.25815 -92.79599 35576 ft 454 kts 80°
2026-04-23 22:08 40.26342 -92.75527 35886 ft 453 kts 80°
2026-04-23 22:09 40.26867 -92.71460 36185 ft 453 kts 80°
2026-04-23 22:09 40.27394 -92.67398 36465 ft 452 kts 80°
2026-04-23 22:09 40.27918 -92.63337 36725 ft 452 kts 80°
2026-04-23 22:09 40.28438 -92.59281 36940 ft 453 kts 80°
2026-04-23 22:10 40.29470 -92.51158 37009 ft 451 kts 81°
2026-04-23 22:10 40.30487 -92.43112 37009 ft 450 kts 81°
2026-04-23 22:11 40.31515 -92.35018 37009 ft 450 kts 81°
2026-04-23 22:11 40.32533 -92.26923 37009 ft 450 kts 81°
2026-04-23 22:12 40.33532 -92.18831 37011 ft 450 kts 81°
2026-04-23 22:12 40.35067 -92.10906 37014 ft 450 kts 66°
2026-04-23 22:13 40.37615 -92.03417 37015 ft 450 kts 66°
2026-04-23 22:13 40.40143 -91.95909 37016 ft 450 kts 66°
2026-04-23 22:14 40.42654 -91.88387 37018 ft 450 kts 66°
2026-04-23 22:14 40.45166 -91.80869 37020 ft 450 kts 66°
2026-04-23 22:15 40.47260 -91.74603 37021 ft 450 kts 66°
2026-04-23 22:15 40.49770 -91.67069 37021 ft 450 kts 66°
2026-04-23 22:16 40.52680 -91.58310 37020 ft 450 kts 66°
2026-04-23 22:16 40.55179 -91.50777 37020 ft 450 kts 66°
2026-04-23 22:17 40.57265 -91.44450 37021 ft 450 kts 66°
2026-04-23 22:17 40.59756 -91.36888 37023 ft 450 kts 66°
2026-04-23 22:18 40.62237 -91.29326 37024 ft 450 kts 66°
2026-04-23 22:18 40.64713 -91.21758 37025 ft 450 kts 66°
2026-04-23 22:19 40.67166 -91.14230 37031 ft 450 kts 66°
2026-04-23 22:19 40.69640 -91.06649 37024 ft 450 kts 66°
2026-04-23 22:20 40.72106 -90.99069 37023 ft 450 kts 66°
2026-04-23 22:20 40.74562 -90.91480 37021 ft 450 kts 67°
2026-04-23 22:21 40.77011 -90.83889 37019 ft 450 kts 67°
2026-04-23 22:21 40.79459 -90.76299 37016 ft 449 kts 67°
2026-04-23 22:22 40.81899 -90.68708 37014 ft 449 kts 67°
2026-04-23 22:22 40.84333 -90.61115 37013 ft 449 kts 67°
2026-04-23 22:23 40.86769 -90.53503 37014 ft 450 kts 67°
2026-04-23 22:23 40.89200 -90.45890 37017 ft 450 kts 67°
2026-04-23 22:24 40.91625 -90.38256 37019 ft 450 kts 67°
2026-04-23 22:24 40.94036 -90.30620 37019 ft 450 kts 67°
2026-04-23 22:25 40.96446 -90.22984 37018 ft 450 kts 67°
2026-04-23 22:25 40.98854 -90.15348 37017 ft 450 kts 67°
2026-04-23 22:26 41.01254 -90.07707 37016 ft 450 kts 67°
2026-04-23 22:26 41.03653 -90.00054 37017 ft 450 kts 67°
2026-04-23 22:27 41.06044 -89.92399 37019 ft 450 kts 67°
2026-04-23 22:27 41.08434 -89.84737 37020 ft 450 kts 67°
2026-04-23 22:28 41.10805 -89.77116 37021 ft 450 kts 68°
2026-04-23 22:28 41.13181 -89.69442 37020 ft 450 kts 68°
2026-04-23 22:29 41.15549 -89.61754 37019 ft 450 kts 68°
2026-04-23 22:29 41.17916 -89.54068 37020 ft 450 kts 68°
2026-04-23 22:30 41.20277 -89.46376 37021 ft 450 kts 68°
2026-04-23 22:30 41.22633 -89.38683 37021 ft 450 kts 68°
2026-04-23 22:31 41.24988 -89.30987 37021 ft 449 kts 68°
2026-04-23 22:31 41.27330 -89.23287 37017 ft 449 kts 68°
2026-04-23 22:32 41.29661 -89.15592 37015 ft 449 kts 68°
2026-04-23 22:32 41.31994 -89.07886 37015 ft 449 kts 68°
2026-04-23 22:33 41.34322 -89.00175 37015 ft 449 kts 68°
2026-04-23 22:33 41.36644 -88.92465 37013 ft 449 kts 68°
2026-04-23 22:34 41.38957 -88.84750 37011 ft 449 kts 68°
2026-04-23 22:34 41.41255 -88.77076 37012 ft 449 kts 68°
2026-04-23 22:35 41.43562 -88.69351 37011 ft 449 kts 68°
2026-04-23 22:35 41.45859 -88.61610 37012 ft 449 kts 68°
2026-04-23 22:36 41.48156 -88.53862 37015 ft 450 kts 68°
2026-04-23 22:36 41.50449 -88.46097 37018 ft 450 kts 68°
2026-04-23 22:37 41.53321 -88.38742 37019 ft 448 kts 50°
2026-04-23 22:37 41.55527 -88.35806 36930 ft 448 kts 37°
2026-04-23 22:37 41.58148 -88.33587 36681 ft 447 kts 24°
2026-04-23 22:38 41.61069 -88.32207 36429 ft 446 kts 12°
2026-04-23 22:38 41.64137 -88.31715 36181 ft 445 kts
2026-04-23 22:38 41.67246 -88.31682 35934 ft 446 kts
2026-04-23 22:38 41.70350 -88.31649 35686 ft 447 kts
2026-04-23 22:39 41.73463 -88.31660 35437 ft 447 kts 358°
2026-04-23 22:39 41.76571 -88.31786 34971 ft 449 kts 357°
2026-04-23 22:39 41.79717 -88.31995 34056 ft 455 kts 356°
2026-04-23 22:39 41.82902 -88.32252 33140 ft 461 kts 356°
2026-04-23 22:40 41.86118 -88.32517 32171 ft 466 kts 356°
2026-04-23 22:40 41.89368 -88.32768 31225 ft 470 kts 356°
2026-04-23 22:40 41.95817 -88.33202 30083 ft 460 kts 357°
2026-04-23 22:41 41.98987 -88.33393 29468 ft 457 kts 357°
2026-04-23 22:41 42.02146 -88.33580 28869 ft 453 kts 357°
2026-04-23 22:41 42.05276 -88.33772 28276 ft 448 kts 357°
2026-04-23 22:41 42.08379 -88.33967 27684 ft 444 kts 357°
2026-04-23 22:42 42.11455 -88.34164 27101 ft 440 kts 357°
2026-04-23 22:42 42.14492 -88.34362 26530 ft 436 kts 357°
2026-04-23 22:42 42.17504 -88.34552 25969 ft 431 kts 357°
2026-04-23 22:42 42.20488 -88.34736 25415 ft 426 kts 357°
2026-04-23 22:43 42.23433 -88.34920 24875 ft 422 kts 357°
2026-04-23 22:43 42.26342 -88.35131 24353 ft 417 kts 356°
2026-04-23 22:43 42.29213 -88.35426 23837 ft 411 kts 355°
2026-04-23 22:43 42.32010 -88.35772 23353 ft 406 kts 354°
2026-04-23 22:44 42.34799 -88.36141 22879 ft 400 kts 354°
2026-04-23 22:44 42.37540 -88.36522 22421 ft 394 kts 353°
2026-04-23 22:44 42.40242 -88.36967 21980 ft 388 kts 352°
2026-04-23 22:44 42.42896 -88.37451 21538 ft 382 kts 352°
2026-04-23 22:45 42.45508 -88.37945 21110 ft 377 kts 352°
2026-04-23 22:45 42.48082 -88.38423 20687 ft 372 kts 352°
2026-04-23 22:45 42.50632 -88.38886 20253 ft 368 kts 352°
2026-04-23 22:45 42.53155 -88.39331 19822 ft 363 kts 352°
2026-04-23 22:46 42.55646 -88.39761 19382 ft 360 kts 352°
2026-04-23 22:46 42.58121 -88.40185 18949 ft 357 kts 352°
2026-04-23 22:46 42.60567 -88.40605 18633 ft 350 kts 352°
2026-04-23 22:46 42.62939 -88.41015 18492 ft 338 kts 352°
2026-04-23 22:47 42.65249 -88.41418 18196 ft 332 kts 352°
2026-04-23 22:47 42.67521 -88.41818 17945 ft 328 kts 352°
2026-04-23 22:47 42.69775 -88.42243 17693 ft 326 kts 351°
2026-04-23 22:47 42.72009 -88.42744 17443 ft 325 kts 350°
2026-04-23 22:48 42.74247 -88.43030 17098 ft 324 kts
2026-04-23 22:48 42.76494 -88.42714 16584 ft 325 kts
2026-04-23 22:48 42.78691 -88.42023 16183 ft 323 kts 21°
2026-04-23 22:48 42.80625 -88.40548 15919 ft 317 kts 38°
2026-04-23 22:49 42.82154 -88.38416 15576 ft 314 kts 54°
2026-04-23 22:49 42.83169 -88.35797 15187 ft 312 kts 70°
2026-04-23 22:49 42.83871 -88.33010 14801 ft 311 kts 71°
2026-04-23 22:49 42.84566 -88.30235 14241 ft 308 kts 71°
2026-04-23 22:50 42.85254 -88.27484 13665 ft 305 kts 71°
2026-04-23 22:50 42.85935 -88.24761 13089 ft 303 kts 70°
2026-04-23 22:50 42.86878 -88.22268 12699 ft 287 kts 51°
2026-04-23 22:50 42.88241 -88.20416 12329 ft 271 kts 41°
2026-04-23 22:51 42.89610 -88.18728 11757 ft 262 kts 42°
2026-04-23 22:51 42.90929 -88.17084 11084 ft 259 kts 42°
2026-04-23 22:51 42.92253 -88.15433 10398 ft 256 kts 42°
2026-04-23 22:51 42.93563 -88.13799 9742 ft 256 kts 42°
2026-04-23 22:52 42.94895 -88.12198 9330 ft 254 kts 35°
2026-04-23 22:52 42.96467 -88.11213 8934 ft 250 kts 18°
2026-04-23 22:52 42.98125 -88.10508 8509 ft 249 kts 16°
2026-04-23 22:52 42.99783 -88.09834 8092 ft 248 kts 16°
2026-04-23 22:53 43.01432 -88.09166 7678 ft 246 kts 16°
2026-04-23 22:53 43.03071 -88.08503 7279 ft 245 kts 16°
2026-04-23 22:53 43.04672 -88.07855 7054 ft 235 kts 16°
2026-04-23 22:53 43.06212 -88.07231 6609 ft 228 kts 16°
2026-04-23 22:54 43.07729 -88.06616 5956 ft 228 kts 16°
2026-04-23 22:54 43.09234 -88.06006 5341 ft 226 kts 16°
2026-04-23 22:54 43.10736 -88.05398 4730 ft 224 kts 16°
2026-04-23 22:54 43.12223 -88.04795 4115 ft 222 kts 16°
2026-04-23 22:55 43.13690 -88.04162 3512 ft 220 kts 22°
2026-04-23 22:55 43.14908 -88.02931 3065 ft 214 kts 43°
2026-04-23 22:55 43.15778 -88.01307 2998 ft 212 kts 62°
2026-04-23 22:55 43.16652 -87.99709 3002 ft 211 kts 37°
2026-04-23 22:56 43.17911 -87.98684 2999 ft 211 kts 34°
2026-04-23 22:56 43.18973 -87.97314 3004 ft 211 kts 47°
2026-04-23 22:56 43.19643 -87.95552 3007 ft 211 kts 74°
2026-04-23 22:56 43.19785 -87.93561 3006 ft 211 kts 94°
2026-04-23 22:57 43.19576 -87.91569 3006 ft 211 kts 103°
2026-04-23 22:57 43.19183 -87.89638 2997 ft 206 kts 111°
2026-04-23 22:57 43.18502 -87.88061 2990 ft 181 kts 130°
2026-04-23 22:57 43.17625 -87.86982 3008 ft 165 kts 147°
2026-04-23 22:58 43.16612 -87.86300 3004 ft 160 kts 162°
2026-04-23 22:58 43.15538 -87.86011 3007 ft 153 kts 177°
2026-04-23 22:58 43.14499 -87.86087 3003 ft 147 kts 188°
2026-04-23 22:58 43.13490 -87.86260 3002 ft 145 kts 188°
2026-04-23 22:59 43.12488 -87.86432 3002 ft 145 kts 188°
2026-04-23 22:59 43.11490 -87.86604 3002 ft 144 kts 188°
2026-04-23 22:59 43.10494 -87.86775 3002 ft 144 kts 188°
2026-04-23 22:59 43.09498 -87.86946 3002 ft 144 kts 188°
2026-04-23 23:00 43.08503 -87.87117 3002 ft 144 kts 188°
2026-04-23 23:00 43.07505 -87.87288 2947 ft 145 kts 188°
2026-04-23 23:00 43.06510 -87.87459 2797 ft 144 kts 188°
2026-04-23 23:00 43.05517 -87.87629 2640 ft 143 kts 188°
2026-04-23 23:01 43.04529 -87.87799 2461 ft 143 kts 188°
2026-04-23 23:01 43.03544 -87.87968 2272 ft 142 kts 188°
2026-04-23 23:01 43.02562 -87.88136 2084 ft 142 kts 188°
2026-04-23 23:01 43.01583 -87.88304 1893 ft 142 kts 188°
2026-04-23 23:02 43.00606 -87.88472 1721 ft 141 kts 188°
2026-04-23 23:02 42.99634 -87.88637 1551 ft 141 kts 188°
2026-04-23 23:02 42.98658 -87.88798 1366 ft 141 kts 187°
2026-04-23 23:02 42.97689 -87.88950 1161 ft 141 kts 187°
2026-04-23 23:03 42.96719 -87.89111 937 ft 140 kts 188°
2026-04-23 23:03 42.95761 -87.89296 756 ft 139 kts 188°
2026-04-23 23:03 42.94844 -87.89467 688 ft 121 kts 186°
2026-04-23 23:03 42.94220 -87.89567 684 ft 64 kts 187°
2026-04-23 23:04 42.93913 -87.89620 685 ft 38 kts 186°
2026-04-23 23:04 42.93677 -87.89660 685 ft 21 kts 190°
2026-04-23 23:04 42.93579 -87.89685 686 ft 10 kts 208°
2026-04-23 23:04 42.93550 -87.89766 683 ft 9 kts 266°
2026-04-23 23:05 42.93560 -87.89850 683 ft 9 kts 289°
2026-04-23 23:05 42.93602 -87.89892 681 ft 8 kts 349°
2026-04-23 23:05 42.93681 -87.89890 685 ft 12 kts
2026-04-23 23:05 42.93763 -87.89889 686 ft 12 kts
2026-04-23 23:06 42.93843 -87.89887 685 ft 12 kts
2026-04-23 23:06 42.93941 -87.89885 685 ft 14 kts
2026-04-23 23:06 42.94008 -87.89883 684 ft 14 kts
2026-04-23 23:06 42.94120 -87.89806 682 ft 14 kts 44°
2026-04-23 23:07 42.94165 -87.89746 683 ft 13 kts 40°
2026-04-23 23:07 42.94251 -87.89709 686 ft 13 kts
2026-04-23 23:07 42.94343 -87.89694 687 ft 16 kts
2026-04-23 23:07 42.94505 -87.89668 688 ft 27 kts
2026-04-23 23:08 42.94693 -87.89635 688 ft 26 kts
2026-04-23 23:08 42.94838 -87.89611 688 ft 19 kts
2026-04-23 23:08 42.94927 -87.89596 686 ft 9 kts
2026-04-23 23:08 42.94970 -87.89637 686 ft 8 kts 294°
2026-04-23 23:09 42.94973 -87.89705 687 ft 7 kts 267°
2026-04-23 23:09 42.94975 -87.89770 688 ft 7 kts 281°
2026-04-23 23:09 42.94980 -87.89822 688 ft 3 kts 246°
2026-04-23 23:09 42.94961 -87.89830 685 ft 4 kts 173°
2026-04-23 23:10 42.94939 -87.89830 686 ft 3 kts 193°
2026-04-23 23:10 42.94924 -87.89838 681 ft 2 kts 202°
2026-04-23 23:10 42.94914 -87.89843 688 ft 1 kts 196°
2026-04-23 23:10 42.94910 -87.89846 688 ft 1 kts 208°
2026-04-23 23:11 42.94905 -87.89850 687 ft 0 kts 208°